Retour au catalogue

CZ-2C R/B

ActifVLEO
NORAD 52794·ROCKET BODY·🇨🇳 China

Lancé Jun 2, 2022 depuis Xichang Satellite Launch Center

Loading…

Prochains Passages (prochaines 24 heures)

TLE

FraisSource: Space-Track

Époque: Sep 14, 2026, 10:26 UTC

1 52794U 22058K   26257.43531731  .00045777  00000-0  38913-3 0  9990
2 52794  50.1838  56.8810 0029962 284.6460  75.1195 15.68498607239624

Suivez CZ-2C R/B en temps réel avec AllMySat

Download on the App Store